Tracking 29892 objects as of 21-Nov-2024
HD Live streaming from Space Station
objects crossing your sky now

STARLINK-31573

Track STARLINK-31573 now!
10-day predictions
STARLINK-31573 is classified as:


NORAD ID: 59334
Int'l Code: 2024-057Q
Perigee: 449.8 km
Apogee: 452.6 km
Inclination: 43.0 °
Period: 93.5 minutes
Semi major axis: 6822 km
RCS: Unknown
Launch date: March 25, 2024
Source: United States (US)
Launch site: AIR FORCE EASTERN TEST RANGE (AFETR)
Your satellite tracking list
Your tracking list is empty




NASA's NSSDC Master Catalog

Two Line Element Set (TLE):
1 59334U 24057Q   24326.14027804 -.00000476  00000-0 -41098-5 0  9991
2 59334  43.0034   4.9924 0002071 265.6717  94.3903 15.40697931 38321
Source of the keplerian elements: AFSPC